Flag for Canada Weather past 2 weeks in Selkirk, Manitoba, Canada

Now
40 °F

Chilly.


Feels Like: 40 °F
Forecast: 31 / 40 °F
Wind: 2 mph from Southwest

Location: Winnipeg The Forks


UV Index: 3 (Moderate)

Visibility: N/A


Pressure: 29.70 "Hg

Humidity: 72%

Dew point: 31 °F

Location of SelkirkLocation

Historic Weather in Selkirk

°F

Selkirk temperature yesterday

Maximum temperature yesterday: 46 °F (at 4:00 PM)
Minimum temperature yesterday: 21 °F (at 6:00 AM)
Average temperature yesterday: 35 °F

Past Weeks' High & Low Weather Summary

 TemperatureHumidityPressure
High50 °F (Apr 9, 4:00 PM)100% (Apr 6, 5:00 AM)30.45 "Hg (Apr 6, 5:00 AM)
Low10 °F (Apr 15, 1:00 AM)24% (Apr 18, 3:00 PM)29.31 "Hg (Apr 9, 4:00 PM)
Average31 °F62%30.01 "Hg
* Reported Apr 4 8:00 AM — Apr 19 8:00 AM, Selkirk, Weather by CustomWeather, © 2014

Note: Actual official high and low records may vary slightly from our data, if they occured in-between our weather recording intervals... More about our weather records

Advertising

Historic Weather Conditions — Data for Previous 24 hours

 ConditionsComfort  
Time TempWeatherWind HumidityBarometerVisibility
8:00 AM
Apr 19
39 °FChilly.3 mph71%29.72 "HgN/A
7:00 AM38 °FChilly.2 mph72%29.72 "HgN/A
6:00 AM38 °FChilly.5 mph73%29.75 "HgN/A
5:00 AM35 °FChilly.6 mph85%29.79 "HgN/A
4:00 AM35 °FChilly.9 mph83%29.81 "HgN/A
3:00 AM36 °FChilly.12 mph83%29.86 "HgN/A
2:00 AM36 °FChilly.12 mph85%29.89 "HgN/A
1:00 AM35 °FChilly.10 mph87%29.93 "HgN/A
12:00 AM35 °FChilly.10 mph88%29.97 "HgN/A
11:00 PM
Apr 18
39 °FChilly.9 mph73%30.05 "HgN/A
10:00 PM43 °FQuite cool.10 mph39%30.08 "HgN/A
9:00 PM42 °FQuite cool.8 mph40%30.10 "HgN/A
8:00 PM44 °FQuite cool.8 mph36%30.10 "HgN/A
7:00 PM44 °FQuite cool.8 mph39%30.11 "HgN/A
6:00 PM45 °FQuite cool.9 mph41%30.14 "HgN/A
5:00 PM44 °FQuite cool.10 mph37%30.17 "HgN/A
4:00 PM46 °FCool.8 mph28%30.21 "HgN/A
3:00 PM45 °FCool.7 mph24%30.24 "HgN/A
2:00 PM44 °FQuite cool.9 mph25%30.27 "HgN/A
1:00 PM43 °FQuite cool.3 mph26%30.28 "HgN/A
12:00 PM41 °FQuite cool.6 mph30%30.32 "HgN/A
11:00 AM39 °FChilly.6 mph33%30.33 "HgN/A
10:00 AM38 °FChilly.2 mph32%30.33 "HgN/A
9:00 AM32 °FChilly.2 mph45%30.34 "HgN/A
Weather by CustomWeather, © 2014

See weather overview